This demonstration page uses our WeatherBlox Daily Observations layout. Learn more.

Left ArrowRight Arrow

Hourly Observations for November 12, 2020

Temp ( °F °C ) Dew Point ( °F °C ) Humidity (%) Winds ( mph kmh ) Pressure ( in mb ) Visibility ( mi km ) Precip ( " mm )
12:56 am 00:56 Clear 31 -0.6 26 -3.3 82 82 SSW 8 13 30.00 1016 10 16 0.00 0.00
1:56 am 01:56 Clear 33 0.6 25 -3.9 72 72 SW 7 11 29.99 1016 10 16 0.00 0.00
2:56 am 02:56 Clear 33 0.6 26 -3.3 75 75 W 7 11 30.01 1016 10 16 0.00 0.00
3:56 am 03:56 Mostly Clear 32 0 26 -3.3 79 79 W 5 7 30.01 1016 10 16 0.00 0.00
4:56 am 04:56 Cloudy 30 -1.1 26 -3.3 85 85 S 3 6 30.00 1016 10 16 0.00 0.00
5:56 am 05:56 Mostly Clear 28 -2.2 25 -3.9 88 88 S 7 11 30.01 1016 10 16 0.00 0.00
6:56 am 06:56 Clear 30 -1.1 27 -2.8 88 88 NNW 15 24 30.05 1018 10 16 0.00 0.00
7:56 am 07:56 Sunny 27 -2.8 24 -4.4 89 89 NNW 18 30 30.11 1020 10 16 0.00 0.00
8:25 am 08:25 Mostly Cloudy 28 -2 25 -4 86 86 N 21 33 30.19 1022 10 16 0.00 0.00
8:56 am 08:56 Cloudy 29 -1.7 25 -3.9 85 85 N 22 35 30.13 1020 10 16 0.00 0.00
9:56 am 09:56 Cloudy 29 -1.7 23 -5 78 78 N 18 30 30.16 1022 10 16 0.00 0.00
10:13 am 10:13 Partly Cloudy 30 -1 25 -4 80 80 N 21 33 30.21 1023 10 16 0.00 0.00
10:56 am 10:56 Sunny 32 0 24 -4.4 73 73 N 15 24 30.17 1022 10 16 0.00 0.00
11:56 am 11:56 Sunny 35 1.7 23 -5 61 61 N 15 24 30.16 1021 10 16 0.00 0.00
12:56 pm 12:56 Sunny 36 2.2 23 -5 59 59 NNW 16 26 30.16 1021 10 16 0.00 0.00
1:56 pm 13:56 Sunny 36 2.2 22 -5.6 57 57 NNW 17 28 30.16 1021 10 16 0.00 0.00
2:56 pm 14:56 Sunny 38 3.3 22 -5.6 52 52 N 15 24 30.17 1022 10 16 0.00 0.00
3:56 pm 15:56 Sunny 38 3.3 22 -5.6 52 52 NNW 14 22 30.20 1023 10 16 0.00 0.00
4:56 pm 16:56 Sunny 35 1.7 21 -6.1 57 57 NNW 10 17 30.24 1024 10 16 0.00 0.00
5:56 pm 17:56 Clear 31 -0.6 21 -6.1 67 67 N 5 7 30.27 1025 10 16 0.00 0.00
6:56 pm 18:56 Clear 30 -1.1 21 -6.1 69 69 Calm 30.29 1026 10 16 0.00 0.00
7:56 pm 19:56 Clear 30 -1.1 21 -6.1 69 69 Calm 30.29 1026 10 16 0.00 0.00
8:56 pm 20:56 Clear 25 -3.9 20 -6.7 81 81 Calm 30.30 1026 10 16 0.00 0.00
9:56 pm 21:56 Clear 26 -3.3 22 -5.6 84 84 SSW 7 11 30.31 1026 10 16 0.00 0.00
10:56 pm 22:56 Clear 22 -5.6 18 -7.8 85 85 SSW 7 11 30.30 1026 10 16 0.00 0.00
11:56 pm 23:56 Clear 25 -3.9 20 -6.7 81 81 SW 7 11 30.29 1026 10 16 0.00 0.00

Powered by AerisWeather